Location: Winter Haven
(28.0220°N, 81.7330°W)
Time: 02:17:40
(UTC-04:00)

Amateur Radio Satellites - All Passes

Search period start: 22 September 2017 01:47
Search period end: 23 September 2017 01:47
Location: Winter Haven, 28.0220°N, 81.7330°W

Satellite Date Start Highest point End Downlink Frequencies (MHz)
Time Altitude Azimuth
EO-79 22 Sep 01:51:41 01:55:31 33° 286° (WNW) 01:59:22 145.935-145.965
SPROUT 22 Sep 01:52:34 01:56:14 29° 262° (W) 01:59:55 437.525
PCSat 22 Sep 01:58:57 02:04:20 70° 248° (WSW) 02:09:41 145.827
QB50P2 22 Sep 02:05:05 02:08:19 21° 288° (WNW) 02:11:32 145.880/145.840
50 SAT 22 Sep 02:16:05 02:19:21 62° 259° (W) 02:22:38 437.505
BUGSAT 1 22 Sep 02:19:16 02:23:29 88° 102° (ESE) 02:27:43 437.445
M-CUBED/EXP-1 PRIME 22 Sep 02:24:23 02:27:32 45° 288° (WNW) 02:30:38 437.505
SRMSAT 22 Sep 02:24:56 02:30:11 33° 188° (S) 02:35:26 437.500
Gurwin Techsat 1B 22 Sep 02:46:13 02:51:14 42° 100° (E) 02:56:13 435.225
UKube-1 22 Sep 02:49:32 02:53:47 63° 258° (WSW) 02:58:03 .
DX 1 22 Sep 02:52:39 02:56:35 34° 261° (W) 03:00:34 434.975-435.025
BEESAT 22 Sep 02:56:44 02:58:59 13° 68° (ENE) 03:01:14 436.000
Oscar 19 22 Sep 03:17:09 03:22:12 56° 286° (WNW) 03:27:12 437.125/150
O/OREOS (USA 219) 22 Sep 03:37:20 03:41:40 48° 290° (WNW) 03:46:01 437.305
MOZHAYETS 4 22 Sep 03:43:05 03:47:27 44° 75° (ENE) 03:51:50
ITUPSAT 1 22 Sep 03:53:35 03:58:15 62° 75° (ENE) 04:02:59 437.325
CUBESAT XI-V 22 Sep 04:06:18 04:08:48 14° 69° (ENE) 04:11:17 437.345
SRMSAT 22 Sep 04:14:43 04:18:54 20° 196° (SSW) 04:23:06 437.500
ITAMSAT 1 22 Sep 04:18:10 04:22:37 28° 98° (E) 04:27:03 435.822/435.867
Gurwin Techsat 1B 22 Sep 04:27:20 04:30:46 18° 292° (WNW) 04:34:13 435.225
BEESAT 22 Sep 04:31:45 04:36:17 45° 260° (W) 04:40:51 436.000
Tancredo 1 22 Sep 04:40:19 04:42:58 54° 228° (SW) 04:45:36 437.200
AO-7 22 Sep 04:54:45 05:03:03 76° 106° (ESE) 05:11:19 .
nSIGHT-1 22 Sep 04:59:11 05:01:44 21° 41° (NE) 05:04:18 .
RS-15 22 Sep 05:03:29 05:14:25 41° 106° (ESE) 05:25:29 29.354- 29.394
MOZHAYETS 4 22 Sep 05:22:58 05:24:42 12° 266° (W) 05:26:27
CUBESAT XI-V 22 Sep 05:41:19 05:45:44 41° 261° (W) 05:50:11 437.345
ISS 22 Sep 05:51:49 05:55:06 86° 47° (NE) 05:58:23 437.550
KKS-1 22 Sep 05:53:22 05:57:47 89° 100° (E) 06:02:13 437.445
ITAMSAT 1 22 Sep 05:57:42 06:01:52 25° 290° (WNW) 06:06:04 435.822/435.867
BEESAT 3 22 Sep 06:03:45 06:07:28 39° 61° (ENE) 06:11:06 437.485
BEESAT 2 22 Sep 06:08:17 06:10:05 13° 54° (NE) 06:11:51 435.950
STARS 22 Sep 06:23:01 06:27:20 74° 76° (ENE) 06:31:41 437.465
XW-2B 22 Sep 06:28:09 06:28:48 10° 94° (E) 06:29:28 145.730 - 145.750
XW-2F 22 Sep 06:29:49 06:30:17 10° 94° (E) 06:30:45 145.980 - 146.000
nSIGHT-1 22 Sep 06:35:27 06:37:58 21° 233° (SW) 06:40:28 .
XW-2C 22 Sep 06:47:16 06:50:11 21° 97° (E) 06:53:04 145.795 - 145.815
AO-7 22 Sep 06:49:41 06:54:54 19° 300° (WNW) 07:00:08 .
DOVE 4 22 Sep 06:52:25 06:56:39 65° 284° (WNW) 07:01:07 437.250
LilacSat-2 22 Sep 06:56:55 07:00:21 31° 98° (E) 07:03:44 437.200
NUDT-PHONESAT 22 Sep 06:57:06 06:59:48 19° 96° (E) 07:02:28 437.300
AO-85 22 Sep 06:58:09 07:02:43 61° 63° (ENE) 07:07:37 145.980
RS-15 22 Sep 07:14:52 07:26:32 50° 303° (WNW) 07:38:24 29.354- 29.394
KAITUO 1B 22 Sep 07:21:53 07:25:29 46° 99° (E) 07:29:03 145.475/437.950
CUTE-I 22 Sep 07:31:55 07:37:12 64° 102° (ESE) 07:42:29 437.470
BEESAT 2 22 Sep 07:44:12 07:47:56 38° 248° (WSW) 07:51:36 435.950
XW-2D 22 Sep 07:47:06 07:50:45 46° 284° (WNW) 07:54:21 145.860 - 145.880
SEEDS 22 Sep 07:53:17 07:55:27 14° 95° (E) 07:57:36 437.485
XW-2B 22 Sep 07:59:36 08:03:00 32° 285° (WNW) 08:06:23 145.730 - 145.750
XW-2F 22 Sep 08:01:03 08:04:26 32° 285° (WNW) 08:07:48 145.980 - 146.000
HO-68 22 Sep 08:03:28 08:10:13 42° 100° (E) 08:16:55 435.675
STRAND 1 22 Sep 08:04:52 08:09:53 66° 75° (ENE) 08:14:56 437.568
CUTE 1.7 + AOD 2 22 Sep 08:16:10 08:20:17 51° 100° (E) 08:24:21 437.475
XW-2C 22 Sep 08:21:41 08:24:08 17° 288° (WNW) 08:26:34 145.795 - 145.815
AAUSAT CUBESAT 2 22 Sep 08:21:46 08:23:24 12° 94° (E) 08:25:03 437.432
CUBEBUG 2 22 Sep 08:27:11 08:31:35 38° 98° (E) 08:35:59 437.445
NUDT-PHONESAT 22 Sep 08:30:57 08:33:29 17° 288° (WNW) 08:35:58 437.300
LilacSat-2 22 Sep 08:32:57 08:34:15 11° 290° (WNW) 08:35:31 437.200
UWE-3 22 Sep 08:38:08 08:42:07 27° 97° (E) 08:46:04 435.000/436.395/437.385
AO-85 22 Sep 08:42:08 08:42:45 10° 252° (WSW) 08:43:22 145.980
XW-2A 22 Sep 09:11:00 09:14:24 65° 283° (WNW) 09:17:45 145.665 - 145.685
CUTE-I 22 Sep 09:14:49 09:16:38 12° 294° (WNW) 09:18:27 437.470
FO-29 22 Sep 09:16:05 09:21:25 34° 73° (ENE) 09:26:17 435.910
SEEDS 22 Sep 09:27:27 09:31:07 30° 286° (WNW) 09:34:46 437.485
AO-73 22 Sep 09:27:28 09:31:53 48° 99° (E) 09:36:14 145.935
Oscar 11 22 Sep 09:28:53 09:32:45 31° 98° (E) 09:36:35 .
ZACube-1 22 Sep 09:29:11 09:33:43 58° 101° (E) 09:38:11 437.345
RS-15 22 Sep 09:39:02 09:42:57 12° 329° (NNW) 09:46:53 29.354- 29.394
UNISAT 6 22 Sep 09:49:25 09:52:17 18° 70° (ENE) 09:55:12 437.425
HO-68 22 Sep 09:51:42 09:57:35 28° 293° (WNW) 10:03:29 435.675
AAUSAT CUBESAT 2 22 Sep 09:55:11 09:58:53 33° 286° (WNW) 10:02:33 437.432
CUBEBUG 2 22 Sep 10:05:00 10:07:48 16° 290° (WNW) 10:10:38 437.445
DELFI C3 22 Sep 10:05:11 10:07:25 15° 96° (E) 10:09:37 145.870
TIGRISAT 22 Sep 10:12:35 10:16:20 31° 73° (ENE) 10:20:10 435.000
UWE-3 22 Sep 10:14:51 10:18:19 21° 289° (WNW) 10:21:45 435.000/436.395/437.385
EO-88 22 Sep 10:58:39 11:02:06 40° 99° (E) 11:05:32 145.990 - 145.960
FO-29 22 Sep 11:01:43 11:06:25 23° 261° (W) 11:10:46 435.910
Oscar 11 22 Sep 11:06:01 11:08:33 15° 290° (WNW) 11:11:04 .
AO-73 22 Sep 11:06:03 11:07:36 12° 292° (WNW) 11:09:09 145.935
PRISM 22 Sep 11:15:45 11:19:50 69° 258° (WSW) 11:23:55 437.425
UNISAT 6 22 Sep 11:25:07 11:28:44 27° 263° (W) 11:32:25 437.425
Max Valier Satellite 22 Sep 11:27:50 11:31:26 46° 284° (WNW) 11:34:59 145.860
DELFI C3 22 Sep 11:38:52 11:42:05 25° 286° (WNW) 11:45:18 145.870
TIGRISAT 22 Sep 11:50:36 11:53:01 15° 265° (W) 11:55:29 435.000
NANOSAT C BR1 22 Sep 11:52:45 11:55:16 16° 70° (ENE) 11:57:46 145.865
LO-87 22 Sep 12:00:21 12:03:26 27° 98° (E) 12:06:32 145.935 - 145.965
YUBILEINY 22 Sep 12:06:54 12:13:38 26° 85° (E) 12:20:21 435.215
DUCHIFAT 1 22 Sep 12:20:48 12:24:27 30° 73° (ENE) 12:28:07 145.980
AIST 2D 22 Sep 12:25:18 12:28:41 44° 261° (W) 12:32:06 435.315
POLYITAN 1 22 Sep 12:31:40 12:35:46 58° 76° (ENE) 12:39:55 437.675
EO-79 22 Sep 12:36:23 12:40:31 68° 77° (ENE) 12:44:42 145.935-145.965
QB50P2 22 Sep 12:49:24 12:53:35 70° 259° (W) 12:57:46 145.880/145.840
ESTCUBE 1 22 Sep 12:58:01 13:02:30 81° 283° (WNW) 13:06:58 437.505/2401.250
M-CUBED/EXP-1 PRIME 22 Sep 13:02:17 13:06:40 58° 72° (ENE) 13:10:48 437.505
BUGSAT 1 22 Sep 13:02:47 13:05:52 22° 72° (ENE) 13:08:59 437.445
NO-84 22 Sep 13:09:25 13:13:27 60° 127° (SE) 13:17:10 435.350 FM
NANOSAT C BR1 22 Sep 13:27:03 13:30:40 28° 262° (W) 13:34:18 145.865
VELOX 1 22 Sep 13:33:47 13:37:52 37° 99° (E) 13:41:55 145.980
LO-87 22 Sep 13:35:12 13:36:31 12° 289° (WNW) 13:37:52 145.935 - 145.965
SPROUT 22 Sep 13:44:10 13:48:28 78° 102° (ESE) 13:52:45 437.525
50 SAT 22 Sep 13:45:16 13:45:53 10° 95° (E) 13:46:31 437.505
O/OREOS (USA 219) 22 Sep 13:54:00 13:58:37 81° 255° (WSW) 14:03:12 437.305
DUCHIFAT 1 22 Sep 13:57:54 14:00:06 14° 265° (W) 14:02:18 145.980
Gurwin Techsat 1B 22 Sep 14:00:35 14:05:19 34° 72° (ENE) 14:10:03 435.225
SO-50 22 Sep 14:00:46 14:04:36 28° 111° (ESE) 14:08:25 436.795
YUBILEINY 22 Sep 14:01:27 14:09:50 51° 279° (W) 14:18:14 435.215
RS-15 22 Sep 14:15:00 14:24:14 25° 46° (NE) 14:33:03 29.354- 29.394
Oscar 19 22 Sep 14:26:38 14:31:49 80° 258° (WSW) 14:37:02 437.125/150
BUGSAT 1 22 Sep 14:38:20 14:41:05 18° 263° (W) 14:43:52 437.445
UKube-1 22 Sep 14:43:27 14:47:23 35° 99° (E) 14:51:19 .
DX 1 22 Sep 14:47:04 14:51:22 68° 101° (ESE) 14:55:41 434.975-435.025
NO-84 22 Sep 14:49:40 14:51:01 12° 317° (NW) 14:52:20 435.350 FM
PCSat 22 Sep 14:50:29 14:55:32 42° 109° (ESE) 15:00:36 145.827
VELOX 1 22 Sep 15:11:47 15:13:55 13° 291° (WNW) 15:16:03 145.980
50 SAT 22 Sep 15:15:39 15:18:19 23° 286° (WNW) 15:20:59 437.505
ITAMSAT 1 22 Sep 15:29:54 15:33:47 22° 69° (ENE) 15:37:40 435.822/435.867
Gurwin Techsat 1B 22 Sep 15:41:17 15:45:13 21° 264° (W) 15:49:10 435.225
SO-50 22 Sep 15:41:35 15:44:59 21° 304° (WNW) 15:48:22 436.795
AO-7 22 Sep 15:45:48 15:53:53 57° 69° (ENE) 16:01:58 .
MOZHAYETS 4 22 Sep 15:45:54 15:49:06 18° 96° (E) 15:52:15
ITUPSAT 1 22 Sep 16:01:23 16:05:30 28° 98° (E) 16:09:35 437.325
UKube-1 22 Sep 16:20:52 16:23:02 14° 291° (WNW) 16:25:12 .
RS-15 22 Sep 16:26:10 16:37:56 81° 247° (WSW) 16:49:04 29.354- 29.394
PCSat 22 Sep 16:35:09 16:39:01 20° 303° (WNW) 16:42:54 145.827
BEESAT 22 Sep 16:38:24 16:43:12 80° 102° (ESE) 16:47:59 436.000
ITAMSAT 1 22 Sep 17:08:25 17:12:59 32° 261° (W) 17:17:34 435.822/435.867
MOZHAYETS 4 22 Sep 17:22:10 17:26:10 30° 287° (WNW) 17:30:10
JUGNU 22 Sep 17:37:16 17:40:04 13° 160° (SSE) 17:42:51 437.505
ITUPSAT 1 22 Sep 17:39:28 17:43:05 22° 290° (WNW) 17:46:42 437.325
AO-7 22 Sep 17:40:28 17:46:49 24° 262° (W) 17:53:12 .
CUBESAT XI-V 22 Sep 17:44:26 17:49:04 86° 102° (ESE) 17:53:39 437.345
DOVE 4 22 Sep 17:50:50 17:55:19 54° 76° (ENE) 17:59:34 437.250
KKS-1 22 Sep 17:51:27 17:55:19 29° 98° (E) 17:59:11 437.445
STARS 22 Sep 18:19:42 18:23:12 23° 97° (E) 18:26:42 437.465
XW-2D 22 Sep 18:21:23 18:24:39 27° 74° (ENE) 18:27:55 145.860 - 145.880
HO-68 22 Sep 18:27:34 18:31:17 15° 62° (ENE) 18:35:00 435.675
XW-2B 22 Sep 18:33:22 18:36:55 38° 75° (ENE) 18:40:29 145.730 - 145.750
XW-2F 22 Sep 18:34:24 18:37:56 37° 75° (ENE) 18:41:29 145.980 - 146.000
RS-15 22 Sep 18:44:27 18:48:23 12° 262° (W) 18:52:17 29.354- 29.394
CUTE-I 22 Sep 18:46:49 18:51:56 52° 74° (ENE) 18:57:05 437.470
XW-2C 22 Sep 18:54:20 18:58:09 82° 78° (ENE) 19:02:00 145.795 - 145.815
NUDT-PHONESAT 22 Sep 19:01:37 19:05:20 68° 77° (ENE) 19:09:04 437.300
CUTE 1.7 + AOD 2 22 Sep 19:03:08 19:05:40 16° 71° (ENE) 19:08:13 437.475
LilacSat-2 22 Sep 19:05:09 19:08:58 63° 260° (W) 19:12:49 437.200
Tancredo 1 22 Sep 19:20:26 19:23:04 57° 131° (SE) 19:25:43 437.200
CUBEBUG 2 22 Sep 19:20:38 19:22:23 12° 69° (ENE) 19:24:08 437.445
JUGNU 22 Sep 19:23:38 19:28:36 27° 168° (SSE) 19:33:32 437.505
KAITUO 1B 22 Sep 19:28:16 19:31:52 44° 261° (W) 19:35:31 145.475/437.950
KKS-1 22 Sep 19:28:39 19:31:35 18° 290° (WNW) 19:34:33 437.445
XW-2A 22 Sep 19:37:08 19:38:28 12° 71° (ENE) 19:39:49 145.665 - 145.685
BEESAT 3 22 Sep 19:46:23 19:50:02 36° 112° (ESE) 19:53:44 437.485
BEESAT 2 22 Sep 19:54:23 19:54:48 10° 107° (ESE) 19:55:13 435.950
STARS 22 Sep 19:56:00 19:59:22 22° 289° (WNW) 20:02:43 437.465
XW-2D 22 Sep 19:56:56 19:58:46 13° 265° (W) 20:00:37 145.860 - 145.880
nSIGHT-1 22 Sep 19:56:57 19:58:56 15° 126° (SE) 20:00:54 .
HO-68 22 Sep 20:11:02 20:18:09 78° 256° (WSW) 20:25:20 435.675
SEEDS 22 Sep 20:11:08 20:15:21 68° 77° (ENE) 20:19:34 437.485
AO-73 22 Sep 20:17:22 20:19:52 15° 70° (ENE) 20:22:25 145.935
ZACube-1 22 Sep 20:19:00 20:21:57 18° 71° (ENE) 20:24:58 437.345
Oscar 11 22 Sep 20:19:33 20:20:28 11° 69° (ENE) 20:21:23 .
STRAND 1 22 Sep 20:22:30 20:27:19 40° 100° (E) 20:32:08 437.568
CUTE-I 22 Sep 20:29:40 20:32:09 13° 265° (W) 20:34:38 437.470
CUTE 1.7 + AOD 2 22 Sep 20:37:24 20:41:11 30° 262° (W) 20:44:58 437.475
AAUSAT CUBESAT 2 22 Sep 20:37:28 20:41:34 57° 76° (ENE) 20:45:39 437.432
SRMSAT 22 Sep 20:47:34 20:50:56 16° 161° (SSE) 20:54:19 437.500
ISS 22 Sep 20:50:09 20:53:23 73° 131° (SE) 20:56:38 437.550
CUBEBUG 2 22 Sep 20:54:43 20:58:34 37° 262° (W) 21:02:32 437.445
UWE-3 22 Sep 21:03:38 21:07:46 55° 260° (W) 21:12:01 435.000/436.395/437.385
AO-85 22 Sep 21:06:31 21:10:27 75° 297° (WNW) 21:14:20 145.980
XW-2A 22 Sep 21:08:11 21:10:54 22° 263° (W) 21:13:37 145.665 - 145.685
JUGNU 22 Sep 21:11:48 21:17:14 37° 177° (S) 21:22:38 437.505
BEESAT 3 22 Sep 21:25:42 21:27:41 13° 305° (NW) 21:29:40 437.485
NO-84 22 Sep 21:27:16 21:28:52 14° 44° (NE) 21:30:26 435.350 FM
BEESAT 2 22 Sep 21:28:19 21:32:04 41° 299° (WNW) 21:35:53 435.950
nSIGHT-1 22 Sep 21:32:15 21:35:02 27° 317° (NW) 21:37:51 .
Oscar 11 22 Sep 21:51:56 21:56:07 46° 261° (W) 22:00:18 .
AO-73 22 Sep 21:51:58 21:55:46 31° 263° (W) 21:59:38 145.935
ZACube-1 22 Sep 21:54:27 21:57:59 26° 263° (W) 22:01:36 437.345
Max Valier Satellite 22 Sep 21:59:59 22:02:58 23° 74° (ENE) 22:05:58 145.860
STRAND 1 22 Sep 22:02:49 22:06:07 17° 291° (WNW) 22:09:25 437.568
TIGRISAT 22 Sep 22:12:14 22:14:19 13° 94° (E) 22:16:22 435.000
FO-29 22 Sep 22:15:13 22:20:49 58° 102° (ESE) 22:27:06 435.910
DELFI C3 22 Sep 22:16:11 22:20:06 62° 77° (ENE) 22:24:00 145.870
SRMSAT 22 Sep 22:34:34 22:39:38 30° 169° (S) 22:44:41 437.500
JUGNU 22 Sep 23:00:37 23:05:54 34° 187° (S) 23:11:08 437.505
EO-88 22 Sep 23:02:22 23:05:56 53° 260° (W) 23:09:32 145.990 - 145.960
NO-84 22 Sep 23:04:01 23:06:08 19° 237° (WSW) 23:08:13 435.350 FM
PRISM 22 Sep 23:04:11 23:07:35 26° 98° (E) 23:11:00 437.425
UNISAT 6 22 Sep 23:22:25 23:27:07 78° 282° (WNW) 23:31:48 437.425
Max Valier Satellite 22 Sep 23:34:46 23:36:43 14° 265° (W) 23:38:39 145.860
TIGRISAT 22 Sep 23:46:37 23:51:04 44° 285° (WNW) 23:55:31 435.000
ESTCUBE 1 22 Sep 23:50:28 23:54:39 38° 74° (ENE) 23:58:51 437.505/2401.250
AIST 2D 22 Sep 23:57:29 00:00:07 20° 96° (E) 00:02:43 435.315
LO-87 23 Sep 00:01:58 00:05:28 88° 257° (WSW) 00:09:01 145.935 - 145.965
FO-29 23 Sep 00:02:32 00:05:32 15° 291° (WNW) 00:08:41 435.910
SO-50 23 Sep 00:17:54 00:22:24 51° 62° (ENE) 00:26:56 436.795
YUBILEINY 23 Sep 00:19:50 00:28:26 60° 82° (E) 00:37:01 435.215
SRMSAT 23 Sep 00:23:00 00:28:25 38° 179° (S) 00:33:51 437.500
POLYITAN 1 23 Sep 00:24:19 00:27:07 17° 96° (E) 00:29:54 437.675
VELOX 1 23 Sep 00:25:37 00:28:02 15° 69° (ENE) 00:30:26 145.980
EO-79 23 Sep 00:28:38 00:31:43 19° 96° (E) 00:34:47 145.935-145.965
SPROUT 23 Sep 00:31:06 00:34:26 23° 72° (ENE) 00:37:47 437.525
PRISM 23 Sep 00:40:06 00:42:35 16° 289° (WNW) 00:45:05 437.425
QB50P2 23 Sep 00:41:15 00:45:04 31° 98° (E) 00:48:53 145.880/145.840
JUGNU 23 Sep 00:50:14 00:54:26 20° 196° (SSW) 00:58:38 437.505
NANOSAT C BR1 23 Sep 01:17:17 01:21:33 75° 102° (ESE) 01:25:47 145.865
PCSat 23 Sep 01:28:03 01:33:28 80° 66° (ENE) 01:38:52 145.827
ESTCUBE 1 23 Sep 01:29:14 01:31:29 14° 265° (W) 01:33:45 437.505/2401.250
AIST 2D 23 Sep 01:31:06 01:33:03 14° 288° (WNW) 01:35:01 435.315
UKube-1 23 Sep 01:32:56 01:34:49 13° 69° (ENE) 01:36:42 .
DX 1 23 Sep 01:36:14 01:39:42 24° 72° (ENE) 01:43:10 434.975-435.025
50 SAT 23 Sep 01:38:16 01:41:08 28° 74° (ENE) 01:44:00 437.505
